Location: Borowce
(50.8255°N, 19.6209°E)
Time: 16:59:49
(UTC+00:00)

PSLV R/B - Pass Details

Date: 19 May 2025
Orbit: 532 x 552 km, 98.0° (Epoch: 20 June)

Event Time Altitude Azimuth Distance (km) Brightness Sun altitude
Rises 22:22:08 0° 17° (NNE) 2,694 8.6 -19.1°
Reaches altitude 10° 22:24:17 10° 22° (NNE) 1,797 7.4 -19.1°
Maximum altitude 22:28:06 56° 101° (E) 644 4.0 -19.2°
Enters shadow 22:28:47 48° 142° (SE) 709 4.0 -19.2°
